[[{"header":{"parameterUnit":"m.s-1","parameterCategory":2,"la1":30.2991,"la2":30.254,"lo1":-89.0895,"lo2":-89.0444,"dy":0.0017,"dx":0.0017,"nx":28,"ny":28,"refTime":"2025-06-10T21:00:00:Z","depth":"0","parameterNumber":2,"parameterNumberName":"U-component_of_CURRENTS"},"data":[0,0,0,0,0,0,0,0,0,0,0,0,0,0,0,0,0,0,0,0,0,0,0,0,0,0,0,0,0,0,0,0,0,0,0,0,0,0,0,0,0,0,0,0,0,0,0,0,0,0,0,0,0,0,0,0,0,0,0.2689,0.269,0,0.2736,0.2736,0.2737,0.2725,0.2725,0.2724,0.2724,0.2668,0.2668,0.2667,0,0,0,0,0,0,0,0,0,0,0,0,0,0.2576,0.2578,0.2689,0.269,0.2691,0.2736,0.2736,0.2737,0.2726,0.2725,0.2724,0.2724,0.2669,0.2668,0.2666,0,0,0,0,0,0,0,0,0,0,0,0,0,0.2621,0.2578,0.2689,0.2694,0.2695,0.2736,0.2736,0.2737,0.2726,0.2725,0.2724,0.2723,0.2669,0.2668,0.2666,0.2674,0,0,0.2662,0.2661,0,0,0,0,0,0,0,0,0.2618,0.2624,0.2692,0.2693,0.2695,0.2727,0.2676,0.2712,0.2726,0.271,0.2724,0.2723,0.2682,0.2679,0.2686,0.2672,0.2669,0.2662,0.2661,0.266,0.266,0,0,0,0,0,0,0,0.2615,0.2622,0.2704,0.2693,0.2695,0.2689,0.2694,0.2683,0.2695,0.2711,0.2712,0.2723,0.2681,0.2688,0.2684,0.2668,0.2662,0.2661,0.266,0.2659,0.2789,0.2793,0,0,0,0,0,0,0.2619,0.262,0.2703,0.2706,0.2658,0.2692,0.2697,0.2715,0.2698,0.2696,0.2724,0.2722,0.269,0.2686,0.2682,0.2769,0.266,0.2659,0.2658,0.2785,0.279,0.2795,0,0,0,0,0,0,0.2616,0.2626,0.2701,0.2666,0.2675,0.2695,0.2714,0.2716,0.2722,0.2709,0.2704,0.2728,0.269,0.2684,0.2706,0.2763,0.2658,0.2657,0.278,0.2787,0.2792,0.2891,0,0,0,0,0,0,0.2613,0.2625,0.2637,0.2667,0.2678,0.2718,0.2716,0.2718,0.2732,0.2731,0.2711,0.2705,0.2688,0.2709,0.2705,0.2759,0.2656,0.2774,0.2783,0.279,0.2882,0.29,0.2915,0,0,0,0,0,0.2609,0.2627,0.2638,0.2648,0.2695,0.2718,0.2723,0.2731,0.2733,0.2733,0.2751,0.2706,0.2758,0.271,0.2705,0.276,0.277,0.278,0.279,0.2875,0.2897,0.2915,0,0,0,0,0,0,0.2578,0.2629,0.2641,0.2672,0.2692,0.2718,0.2724,0.2735,0.275,0.275,0.2738,0.2734,0.2789,0.2766,0.2713,0.2832,0.2766,0.2775,0.2834,0.2853,0.287,0.2963,0.2655,0,0,0,0,0,0.2581,0.2607,0.2648,0.2667,0.2681,0.2704,0.2716,0.2725,0.2745,0.275,0.2744,0.2769,0.2828,0.2828,0.2854,0.2888,0.2942,0.2934,0.295,0.2964,0.3044,0.3196,0.3233,0.2827,0.2827,0.2826,0,0,0.2572,0.2605,0.2618,0.2662,0.2678,0.2726,0.2708,0.2726,0.2786,0.2741,0.2799,0.2815,0.2855,0.2922,0.2944,0.29,0.3096,0.2976,0.2987,0.3061,0.321,0.325,0.3285,0.2833,0.2832,0.2831,0,0,0.2582,0.2598,0.2634,0.2659,0.2696,0.2724,0.2733,0.2762,0.2791,0.284,0.2871,0.295,0.2948,0.3045,0.3087,0.3216,0.3188,0.3186,0.3326,0.3471,0.3506,0.3538,0.3599,0.3636,0.3182,0.3182,0.3182,0,0.2567,0.2646,0.2642,0.2689,0.2734,0.2732,0.2797,0.2831,0.2866,0.2923,0.2865,0.303,0.3046,0.3235,0.3299,0.3259,0.3296,0.3231,0.3493,0.3526,0.3557,0.3613,0.3652,0.3188,0.3187,0.3187,0.3186,0,0.2631,0.2689,0.2707,0.2788,0.2814,0.2864,0.2917,0.2954,0.2977,0.3027,0.317,0.322,0.3328,0.3349,0.3366,0.3606,0.3542,0.3499,0.3437,0.3604,0.3651,0.369,0.3196,0.3194,0.3193,0.3191,0,0,0.2648,0.2741,0.2752,0.2815,0.2886,0.2915,0.3017,0.3135,0.3227,0.3263,0.3415,0.3562,0.3577,0.364,0.3666,0.3814,0.4046,0.3757,0.3762,0.3811,0.431,0.4167,0.4195,0.4026,0.4035,0.4042,0.4231,0,0.2725,0.2835,0.2867,0.2985,0.3066,0.3097,0.3193,0.3279,0.3344,0.3466,0.3585,0.371,0.3686,0.3744,0.3899,0.4032,0.4164,0.3996,0.4153,0.4159,0.4007,0.4244,0.4119,0.4272,0.427,0.4276,0.4281,0,0.283,0.2898,0.3019,0.3136,0.3168,0.3223,0.3378,0.3459,0.3623,0.3674,0.3817,0.3869,0.413,0.405,0.438,0.4258,0.4325,0.44,0.4406,0.4291,0.4095,0.4121,0.4343,0.4231,0.4341,0.4336,0.4332,0,0.2907,0.3023,0.3127,0.3165,0.3277,0.3339,0.3397,0.3531,0.3607,0.3816,0.3879,0.4131,0.4239,0.4436,0.455,0.4492,0.4861,0.4775,0.4706,0.469,0.4638,0.4603,0.4782,0.5032,0.5031,0.5031,0.503,0,0.3035,0.3119,0.3161,0.3227,0.3335,0.3387,0.3512,0.3601,0.3736,0.3842,0.3982,0.4108,0.4347,0.4524,0.4644,0.4797,0.4923,0.4827,0.4787,0.4655,0.4622,0.4558,0.4491,0.5038,0.5036,0.5035,0.5034,0,0.3129,0.3165,0.3277,0.3366,0.338,0.345,0.3516,0.3607,0.3726,0.3872,0.3939,0.4146,0.4381,0.4555,0.486,0.4872,0.4935,0.5052,0.4835,0.4768,0.458,0.4521,0.4534,0.4403,0.507,0.5068,0.5067,0,0.3207,0.3269,0.3332,0.3356,0.3392,0.3465,0.3513,0.3605,0.3679,0.3879,0.3958,0.4187,0.4313,0.466,0.4803,0.4992,0.4862,0.4931,0.4842,0.4645,0.4553,0.4341,0.4214,0.4788,0.4784,0.4781,0.4779,0,0.3335,0.3325,0.3378,0.3414,0.3448,0.3481,0.3543,0.3576,0.3694,0.3795,0.3927,0.4038,0.4318,0.4473,0.4674,0.477,0.4706,0.4871,0.4791,0.4497,0.417,0.3992,0.4511,0.4754,0.4756,0.4758,0.4759,0.476,0.3388,0.3407,0.3425,0.3455,0.3473,0.3467,0.3466,0.3517,0.3573,0.3661,0.3821,0.393,0.4203,0.4477,0.4517,0.4523,0.4486,0.4484,0.4472,0.4305,0.4076,0.4491,0.4588,0.459,0.4591,0.4592,0.4593,0,0.3423,0.3414,0.3457,0.3441,0.3427,0.3449,0.3458,0.3428,0.3428,0.3551,0.3621,0.3817,0.4004,0.4186,0.4322,0.4188,0.4004,0.4109,0.3855,0.3782,0.4306,0.4188,0.4053,0.4053,0.4053,0.4053,0.4054,0.4054,0.3433,0.3436,0.3436,0.339,0.3369,0.3298,0.3278,0.3232,0.3272,0.328,0.3336,0.3437,0.3741,0.4062,0.4038,0.3952,0.3648,0.3515,0.3468,0.3909,0.3944,0.3976,0.3854,0.3651,0.365,0.2811,0.2805,0.28]},{"header":{"parameterUnit":"m.s-1","parameterCategory":2,"la1":30.2991,"la2":30.254,"lo1":-89.0895,"lo2":-89.0444,"dy":0.0017,"dx":0.0017,"nx":28,"ny":28,"refTime":"2025-06-10T21:00:00:Z","depth":"0","parameterNumber":3,"parameterNumberName":"V-component_of_CURRENTS"},"data":[0,0,0,0,0,0,0,0,0,0,0,0,0,0,0,0,0,0,0,0,0,0,0,0,0,0,0,0,0,0,0,0,0,0,0,0,0,0,0,0,0,0,0,0,0,0,0,0,0,0,0,0,0,0,0,0,0,0,0.0092,0.0092,0,0.0017,0.0016,0.0015,-0.0059,-0.006,-0.006,-0.0061,-0.0161,-0.0163,-0.0165,0,0,0,0,0,0,0,0,0,0,0,0,0,0.0124,0.0124,0.0092,0.0092,0.0091,0.0017,0.0016,0.0015,-0.0059,-0.006,-0.0061,-0.0061,-0.016,-0.0163,-0.0165,0,0,0,0,0,0,0,0,0,0,0,0,0,0.0084,0.0124,0.0092,0.0047,0.0042,0.0017,0.0016,0.0014,-0.0058,-0.006,-0.0061,-0.0062,-0.016,-0.0162,-0.0165,-0.016,0,0,-0.0174,-0.0175,0,0,0,0,0,0,0,0,0.0086,0.0082,0.0054,0.005,0.0045,-0.0011,-0.001,-0.0045,-0.0058,-0.0022,-0.0061,-0.0062,-0.0111,-0.0118,-0.0132,-0.0165,-0.0169,-0.0174,-0.0176,-0.0177,-0.0178,0,0,0,0,0,0,0,0.0089,0.0085,0.006,0.0054,0.0048,0.0013,0.0007,-0.0017,-0.0061,-0.0026,-0.0031,-0.0035,-0.0114,-0.0129,-0.0135,-0.017,-0.0174,-0.0177,-0.0179,-0.018,-0.0112,-0.0109,0,0,0,0,0,0,0.0106,0.0088,0.0063,0.0058,0.0065,0.0014,0.0006,0.0006,-0.0061,-0.0071,-0.0034,-0.0039,-0.0123,-0.0131,-0.0139,-0.0029,-0.0177,-0.018,-0.0182,-0.0116,-0.0112,-0.0108,0,0,0,0,0,0,0.0107,0.0105,0.0066,0.0073,0.0065,0.0016,0.0016,0.0006,-0.0008,-0.0067,-0.0078,-0.0037,-0.0125,-0.0135,-0.0136,-0.0038,-0.0181,-0.0184,-0.012,-0.0115,-0.011,0.0121,0,0,0,0,0,0,0.0109,0.0106,0.0114,0.0074,0.0066,0.0063,0.0017,0.0005,-0.0008,-0.0014,-0.0072,-0.0083,-0.0126,-0.0131,-0.0139,-0.0044,-0.0186,-0.0125,-0.0118,-0.0111,0.0109,0.0134,0.0155,0,0,0,0,0,0.011,0.013,0.0115,0.0112,0.0078,0.0064,0.0057,0.0015,-0.0007,-0.0003,-0.0031,-0.0081,-0.0094,-0.0132,-0.0141,-0.0045,-0.0128,-0.012,-0.0112,0.0099,0.0129,0.0154,0,0,0,0,0,0,0.0153,0.0123,0.0106,0.0117,0.0097,0.0053,0.0052,0.0027,0.0006,0.0,-0.0056,-0.0067,-0.0021,-0.0075,-0.0115,-0.0006,-0.0111,-0.0105,0.0053,0.0081,0.0103,0.0198,-0.0189,0,0,0,0,0,0.0167,0.0169,0.0138,0.0148,0.0141,0.01,0.0089,0.0064,0.0039,0.0027,-0.0005,-0.0022,0.0005,0.0005,-0.0006,0.0037,0.0008,0.0098,0.0121,0.0141,0.0213,0.0254,0.0288,-0.0082,-0.0082,-0.0082,0,0,0.0187,0.0171,0.0173,0.0157,0.0135,0.0169,0.009,0.0083,0.0144,0.0022,0.0082,0.0047,0.0032,0.0097,0.0114,0.0063,0.0219,0.0151,0.0168,0.0231,0.0266,0.0302,0.0334,-0.0076,-0.0077,-0.0078,0,0,0.0247,0.0214,0.0247,0.0241,0.0221,0.0208,0.0214,0.0182,0.0198,0.0231,0.02,0.0238,0.0212,0.027,0.0289,0.0432,0.0337,0.0403,0.0603,0.0641,0.0673,0.0701,0.0664,0.0687,0.0418,0.0418,0.0419,0,0.0276,0.0328,0.0255,0.0294,0.0327,0.0242,0.0318,0.0324,0.0305,0.0369,0.0276,0.0364,0.0329,0.0505,0.0559,0.0497,0.0456,0.0499,0.0675,0.0702,0.0727,0.0682,0.0705,0.043,0.0429,0.0428,0.0427,0,0.0379,0.0421,0.044,0.0479,0.0489,0.0533,0.0537,0.0572,0.0564,0.0586,0.071,0.0667,0.0733,0.0732,0.069,0.088,0.077,0.0696,0.0612,0.0779,0.0719,0.0738,0.0448,0.0443,0.044,0.0437,0,0,0.0484,0.0513,0.0529,0.0592,0.0605,0.0633,0.0747,0.0859,0.0969,0.0952,0.1116,0.1175,0.1133,0.1158,0.1111,0.1159,0.1268,0.1014,0.101,0.0992,0.1295,0.1172,0.1178,0.1205,0.1211,0.1215,0.1165,0,0.0617,0.0737,0.0723,0.0872,0.0953,0.0938,0.1056,0.1131,0.1172,0.1286,0.1319,0.1407,0.1301,0.1323,0.1375,0.1315,0.1337,0.1286,0.1127,0.1123,0.1007,0.1206,0.1129,0.1077,0.1183,0.1186,0.1188,0,0.0772,0.0836,0.0996,0.1114,0.1148,0.1218,0.1401,0.1486,0.1622,0.1653,0.1751,0.1717,0.1854,0.1675,0.1711,0.1669,0.1524,0.1438,0.1431,0.1272,0.1041,0.0937,0.1106,0.0861,0.1216,0.1214,0.1212,0,0.0933,0.1052,0.1195,0.1231,0.1331,0.1429,0.149,0.1618,0.1716,0.188,0.1941,0.2055,0.2092,0.2015,0.1841,0.1775,0.1804,0.1669,0.1421,0.1403,0.1296,0.1262,0.1239,0.1676,0.1676,0.1677,0.1677,0,0.1122,0.1238,0.1275,0.1357,0.1524,0.1557,0.1746,0.1822,0.1956,0.2102,0.2123,0.2248,0.2175,0.2152,0.1962,0.1783,0.1892,0.1531,0.1434,0.1363,0.1338,0.1078,0.0943,0.1674,0.1675,0.1675,0.1676,0,0.1274,0.1312,0.146,0.1569,0.1598,0.1709,0.1819,0.1961,0.2067,0.2254,0.2308,0.2423,0.2419,0.2272,0.2148,0.1927,0.1599,0.1627,0.1519,0.1413,0.0944,0.0824,0.0748,0.0617,0.1387,0.1384,0.1382,0,0.137,0.1458,0.1559,0.162,0.1663,0.1797,0.1896,0.2006,0.2136,0.2362,0.2471,0.2536,0.2611,0.2394,0.2042,0.1719,0.1497,0.139,0.1283,0.099,0.0784,0.0718,0.0609,0.1192,0.1188,0.1186,0.1183,0,0.1522,0.1533,0.1618,0.1724,0.1825,0.1942,0.2081,0.2182,0.2352,0.2512,0.2729,0.2814,0.2616,0.2332,0.1878,0.1626,0.1208,0.1314,0.1083,0.0738,0.0603,0.0401,0.1086,0.1158,0.116,0.1162,0.1163,0.1164,0.159,0.1647,0.1722,0.1827,0.1937,0.2078,0.2188,0.2348,0.2544,0.2796,0.2885,0.3053,0.2614,0.2017,0.1617,0.0878,0.0947,0.0657,0.0559,0.0539,0.0377,0.0981,0.0894,0.0895,0.0896,0.0897,0.0898,0,0.1651,0.1705,0.1815,0.194,0.2069,0.2113,0.2311,0.244,0.2664,0.2926,0.3108,0.3008,0.2379,0.1765,0.0769,0.0234,0.0066,-0.0002,-0.0096,-0.0156,0.044,0.0393,0.0109,0.0109,0.011,0.011,0.011,0.011,0.1684,0.1775,0.1828,0.2027,0.2123,0.2303,0.2416,0.2602,0.2809,0.3107,0.3251,0.3351,0.2885,0.1121,-0.0078,-0.0329,-0.0667,-0.0741,-0.0866,-0.048,-0.0425,-0.0373,-0.0446,-0.09,-0.0902,-0.1429,-0.1435,-0.1439]}],[{"header":{"parameterUnit":"m.s-1","parameterCategory":2,"la1":30.2991,"la2":30.254,"lo1":-89.0895,"lo2":-89.0444,"dy":0.0017,"dx":0.0017,"nx":28,"ny":28,"refTime":"2025-06-10T21:00:00:Z","depth":"2","parameterNumber":2,"parameterNumberName":"U-component_of_CURRENTS"},"data":[0,0,0,0,0,0,0,0,0,0,0,0,0,0,0,0,0,0,0,0,0,0,0,0,0,0,0,0,0,0,0,0,0,0,0,0,0,0,0,0,0,0,0,0,0,0,0,0,0,0,0,0,0,0,0,0,0,0,0.229,0.2293,0,0.2368,0.2367,0.2367,0.2382,0.2383,0.2384,0.2385,0.2379,0.2378,0.2377,0,0,0,0,0,0,0,0,0,0,0,0,0,0.2231,0.223,0.229,0.2293,0.2295,0.2368,0.2367,0.2366,0.2382,0.2383,0.2384,0.2385,0.2379,0.2378,0.2377,0,0,0,0,0,0,0,0,0,0,0,0,0,0.2261,0.223,0.229,0.2324,0.2329,0.2368,0.2367,0.2366,0.2381,0.2383,0.2384,0.2386,0.238,0.2378,0.2377,0.2338,0,0,0.2372,0.2371,0,0,0,0,0,0,0,0,0.2259,0.2261,0.2316,0.2322,0.2328,0.2381,0.2345,0.2359,0.2381,0.2344,0.2385,0.2386,0.2382,0.2381,0.2369,0.2338,0.2338,0.2372,0.2371,0.237,0.237,0,0,0,0,0,0,0,0.2257,0.2258,0.2304,0.2319,0.2327,0.2363,0.2366,0.2347,0.2339,0.2347,0.2353,0.2388,0.2382,0.237,0.2369,0.2338,0.2372,0.2371,0.237,0.2369,0.2371,0.2372,0,0,0,0,0,0,0.2276,0.2255,0.2301,0.2308,0.2316,0.2364,0.2366,0.2349,0.2341,0.2347,0.2386,0.2389,0.2372,0.2371,0.2369,0.2463,0.237,0.2369,0.2368,0.237,0.2371,0.2372,0,0,0,0,0,0,0.2273,0.2276,0.2299,0.2301,0.2308,0.2364,0.2344,0.235,0.2364,0.2376,0.2376,0.24,0.2373,0.2371,0.2365,0.2458,0.2368,0.2367,0.2369,0.237,0.2372,0.2561,0,0,0,0,0,0,0.2269,0.2273,0.228,0.23,0.2309,0.2324,0.2345,0.2351,0.239,0.2393,0.2386,0.2386,0.2374,0.2367,0.2363,0.2454,0.2365,0.2368,0.237,0.2371,0.2554,0.2569,0.2582,0,0,0,0,0,0.2266,0.2271,0.2277,0.2286,0.2309,0.2326,0.2331,0.2367,0.239,0.2384,0.2387,0.2387,0.2378,0.2365,0.2361,0.2454,0.2367,0.2369,0.2371,0.2548,0.2566,0.2582,0,0,0,0,0,0,0.2251,0.2275,0.2283,0.2294,0.2313,0.2335,0.2349,0.2376,0.2373,0.2375,0.238,0.2378,0.242,0.238,0.2368,0.2453,0.238,0.2382,0.2516,0.2533,0.2547,0.2577,0.2364,0,0,0,0,0,0.2251,0.2265,0.228,0.2299,0.2291,0.2319,0.234,0.2357,0.2366,0.2367,0.2377,0.2384,0.2418,0.2429,0.2422,0.2449,0.2421,0.2506,0.252,0.2533,0.255,0.2537,0.2553,0.238,0.238,0.238,0,0,0.2265,0.228,0.2294,0.2301,0.2303,0.2323,0.2328,0.2347,0.2392,0.2364,0.2407,0.2424,0.243,0.2481,0.2498,0.2467,0.2576,0.2536,0.2548,0.2558,0.2541,0.2558,0.2573,0.2381,0.2381,0.2381,0,0,0.2295,0.228,0.2295,0.23,0.2322,0.2337,0.2349,0.2363,0.2382,0.2408,0.2442,0.2517,0.2502,0.2583,0.2611,0.2688,0.2646,0.2678,0.2791,0.2779,0.2794,0.2807,0.2839,0.2853,0.2693,0.2693,0.2694,0,0.2309,0.233,0.2307,0.2316,0.2347,0.2348,0.2374,0.2389,0.2421,0.2477,0.2429,0.2561,0.2571,0.2735,0.2771,0.2737,0.2702,0.2741,0.2802,0.2814,0.2824,0.2853,0.2866,0.2703,0.2702,0.2701,0.27,0,0.2341,0.2369,0.2368,0.2388,0.24,0.2421,0.2436,0.2477,0.2504,0.2559,0.2681,0.27,0.2797,0.2833,0.2824,0.2953,0.29,0.2822,0.2772,0.2854,0.2878,0.2889,0.2716,0.2713,0.271,0.2708,0,0,0.2373,0.2388,0.2404,0.2421,0.2441,0.2451,0.2526,0.2616,0.2701,0.2745,0.2868,0.2986,0.3023,0.3056,0.3091,0.3105,0.3178,0.2993,0.2988,0.3051,0.3163,0.3063,0.3064,0.3081,0.3082,0.3084,0.3171,0,0.242,0.2457,0.2465,0.2531,0.254,0.2571,0.2642,0.2727,0.2785,0.2886,0.2992,0.3087,0.3098,0.3151,0.3185,0.3191,0.3202,0.3163,0.3051,0.305,0.2971,0.3072,0.2851,0.29,0.318,0.3182,0.3183,0,0.2466,0.2493,0.2543,0.2602,0.2606,0.2657,0.278,0.2841,0.2995,0.3035,0.3186,0.3221,0.3396,0.3276,0.3386,0.3344,0.3262,0.3228,0.3227,0.3071,0.2967,0.285,0.2907,0.3199,0.3197,0.3196,0.3195,0,0.2503,0.256,0.2609,0.2622,0.2679,0.2739,0.2793,0.2923,0.2969,0.3145,0.3189,0.3381,0.3437,0.3431,0.3404,0.3378,0.3402,0.3358,0.3206,0.32,0.2962,0.293,0.3327,0.3327,0.3327,0.3326,0.3326,0,0.2552,0.2587,0.2633,0.2656,0.2713,0.2762,0.285,0.2936,0.3055,0.3111,0.3266,0.3321,0.344,0.3467,0.3435,0.3387,0.344,0.3261,0.3216,0.3024,0.2998,0.3191,0.3174,0.333,0.3329,0.3328,0.3328,0,0.252,0.2589,0.2603,0.268,0.2717,0.2734,0.2808,0.2861,0.3009,0.3078,0.3128,0.3296,0.3351,0.3421,0.3413,0.3406,0.3372,0.3281,0.3083,0.3013,0.3189,0.3181,0.3234,0.3232,0.3229,0.3227,0.3226,0,0.2442,0.2476,0.2552,0.2555,0.2576,0.2633,0.2667,0.2815,0.2841,0.303,0.3029,0.3151,0.3175,0.3236,0.3216,0.3207,0.3217,0.2985,0.2909,0.323,0.3181,0.3176,0.3171,0.2698,0.2692,0.2687,0.2684,0,0.2256,0.2323,0.2334,0.2365,0.24,0.2433,0.2492,0.2521,0.2683,0.2765,0.2839,0.2902,0.297,0.2915,0.2921,0.2864,0.3015,0.2887,0.3251,0.2741,0.2725,0.2677,0.2689,0.2641,0.2645,0.2648,0.2651,0.2652,0.2055,0.2018,0.2078,0.2097,0.2146,0.2194,0.2201,0.2273,0.233,0.2402,0.2544,0.2577,0.2681,0.259,0.2525,0.2508,0.269,0.2631,0.2646,0.2665,0.2573,0.2551,0.2422,0.2424,0.2427,0.2429,0.2431,0,0.1786,0.1824,0.1796,0.184,0.1835,0.1975,0.2038,0.2032,0.2057,0.2133,0.2178,0.2048,0.2079,0.2159,0.2092,0.2145,0.2108,0.206,0.2019,0.2063,0.2102,0.198,0.1672,0.167,0.1667,0.1665,0,0,0.1642,0.1574,0.1601,0.1534,0.1597,0.161,0.1655,0.1678,0.1721,0.1641,0.1659,0.1857,0.2067,0.1819,0.183,0.1747,0.1864,0.1662,0.2273,0.2264,0.2298,0.2441,0.2303,0,0,0,0,0]},{"header":{"parameterUnit":"m.s-1","parameterCategory":2,"la1":30.2991,"la2":30.254,"lo1":-89.0895,"lo2":-89.0444,"dy":0.0017,"dx":0.0017,"nx":28,"ny":28,"refTime":"2025-06-10T21:00:00:Z","depth":"2","parameterNumber":3,"parameterNumberName":"V-component_of_CURRENTS"},"data":[0,0,0,0,0,0,0,0,0,0,0,0,0,0,0,0,0,0,0,0,0,0,0,0,0,0,0,0,0,0,0,0,0,0,0,0,0,0,0,0,0,0,0,0,0,0,0,0,0,0,0,0,0,0,0,0,0,0,-0.015,-0.0151,0,-0.0203,-0.0204,-0.0205,-0.0263,-0.0264,-0.0265,-0.0266,-0.0339,-0.0341,-0.0342,0,0,0,0,0,0,0,0,0,0,0,0,0,-0.0132,-0.0131,-0.015,-0.0151,-0.0151,-0.0203,-0.0204,-0.0205,-0.0263,-0.0264,-0.0265,-0.0266,-0.0339,-0.034,-0.0342,0,0,0,0,0,0,0,0,0,0,0,0,0,-0.0158,-0.0131,-0.015,-0.0187,-0.019,-0.0203,-0.0204,-0.0205,-0.0263,-0.0264,-0.0266,-0.0267,-0.0339,-0.034,-0.0342,-0.0327,0,0,-0.0347,-0.0348,0,0,0,0,0,0,0,0,-0.0156,-0.0158,-0.0181,-0.0184,-0.0188,-0.0228,-0.0225,-0.0247,-0.0263,-0.0236,-0.0266,-0.0267,-0.0303,-0.0308,-0.0315,-0.0331,-0.0334,-0.0347,-0.0349,-0.0349,-0.035,0,0,0,0,0,0,0,-0.0154,-0.0157,-0.0171,-0.0181,-0.0186,-0.0212,-0.0217,-0.0229,-0.0262,-0.0238,-0.0242,-0.0248,-0.0305,-0.0313,-0.0317,-0.0335,-0.0347,-0.0349,-0.035,-0.0351,-0.0377,-0.0377,0,0,0,0,0,0,-0.0144,-0.0154,-0.017,-0.0173,-0.0175,-0.0211,-0.0216,-0.0214,-0.0262,-0.027,-0.0247,-0.025,-0.0309,-0.0315,-0.032,-0.0291,-0.0349,-0.0351,-0.0352,-0.0377,-0.0377,-0.0377,0,0,0,0,0,0,-0.0143,-0.0144,-0.0167,-0.0165,-0.017,-0.021,-0.0207,-0.0214,-0.0223,-0.0268,-0.0277,-0.0248,-0.0311,-0.0317,-0.0332,-0.0295,-0.0352,-0.0353,-0.0378,-0.0377,-0.0377,-0.0242,0,0,0,0,0,0,-0.0142,-0.0144,-0.0138,-0.0164,-0.017,-0.0165,-0.0206,-0.0215,-0.0224,-0.023,-0.0271,-0.028,-0.0312,-0.0329,-0.0334,-0.0298,-0.0355,-0.0378,-0.0378,-0.0377,-0.0247,-0.0237,-0.0229,0,0,0,0,0,-0.0141,-0.0126,-0.0137,-0.0139,-0.016,-0.0164,-0.0168,-0.0202,-0.0223,-0.0216,-0.0252,-0.0279,-0.0329,-0.0329,-0.0335,-0.03,-0.0379,-0.0378,-0.0377,-0.0251,-0.0239,-0.0229,0,0,0,0,0,0,-0.0114,-0.0132,-0.0144,-0.0135,-0.0144,-0.0173,-0.0171,-0.0192,-0.0214,-0.0221,-0.0268,-0.0278,-0.0282,-0.0314,-0.0315,-0.0311,-0.036,-0.036,-0.0263,-0.0252,-0.0242,-0.0285,-0.0356,0,0,0,0,0,-0.0103,-0.0097,-0.0117,-0.0107,-0.0109,-0.0137,-0.0143,-0.0162,-0.0185,-0.0196,-0.0227,-0.0262,-0.0282,-0.0285,-0.0317,-0.0301,-0.0365,-0.0288,-0.0279,-0.027,-0.0312,-0.039,-0.0392,-0.0374,-0.0374,-0.0374,0,0,-0.0085,-0.0098,-0.0092,-0.01,-0.0111,-0.0105,-0.0144,-0.0142,-0.0153,-0.0199,-0.0217,-0.0233,-0.0276,-0.0269,-0.0272,-0.0287,-0.0293,-0.0269,-0.0261,-0.0309,-0.039,-0.0392,-0.0394,-0.0373,-0.0373,-0.0374,0,0,-0.0049,-0.0059,-0.0042,-0.0045,-0.0056,-0.0075,-0.007,-0.0092,-0.012,-0.013,-0.0167,-0.0161,-0.0199,-0.0207,-0.0221,-0.018,-0.0251,-0.0187,-0.0157,-0.023,-0.0232,-0.0236,-0.0246,-0.0252,-0.017,-0.0169,-0.0169,0,-0.0028,-0.0019,-0.0036,-0.0022,-0.0033,-0.0057,-0.0048,-0.0067,-0.0095,-0.0104,-0.0128,-0.0163,-0.0173,-0.0168,-0.0155,-0.0155,-0.0212,-0.0182,-0.0217,-0.0222,-0.0228,-0.024,-0.0248,-0.0163,-0.0163,-0.0164,-0.0165,0,0.0006,0.0023,0.0035,0.0036,0.0028,0.0037,0.0004,0.0012,-0.0019,-0.0044,-0.006,-0.0085,-0.0095,-0.0087,-0.0112,-0.0134,-0.0162,-0.02,-0.024,-0.0222,-0.0234,-0.0245,-0.0153,-0.0156,-0.0158,-0.0159,0,0,0.0054,0.0053,0.0068,0.0062,0.0052,0.0047,0.0055,0.0044,0.0054,0.0019,0.0011,-0.0005,-0.0011,-0.0032,-0.0042,-0.011,-0.0142,-0.0175,-0.0182,-0.0177,-0.0284,-0.0282,-0.0294,-0.0206,-0.0209,-0.0211,-0.0248,0,0.0089,0.0102,0.0096,0.0118,0.0115,0.0107,0.0113,0.0106,0.0086,0.0084,0.0047,0.0039,0.0006,0.0025,-0.0045,-0.0132,-0.018,-0.0128,-0.0315,-0.032,-0.0315,-0.031,-0.0284,-0.0318,-0.026,-0.0262,-0.0263,0,0.0133,0.0125,0.0134,0.0134,0.0136,0.0154,0.0161,0.0166,0.0171,0.016,0.0154,0.0115,0.0078,0.0018,-0.0129,-0.0106,-0.0194,-0.028,-0.0283,-0.0359,-0.0343,-0.0345,-0.0341,-0.0282,-0.0281,-0.0279,-0.0278,0,0.0144,0.0163,0.0154,0.0154,0.0154,0.0175,0.0188,0.0203,0.0208,0.0222,0.0232,0.0166,0.0144,-0.0007,-0.0145,-0.0148,-0.036,-0.0357,-0.0434,-0.0431,-0.0489,-0.0488,-0.0502,-0.0502,-0.0502,-0.0502,-0.0502,0,0.0167,0.0175,0.0167,0.017,0.0179,0.0187,0.022,0.0247,0.0279,0.0298,0.0278,0.0265,0.0109,-0.001,-0.0147,-0.032,-0.0338,-0.0452,-0.0465,-0.0431,-0.0425,-0.0482,-0.0479,-0.0503,-0.0503,-0.0503,-0.0503,0,0.0163,0.0176,0.0164,0.017,0.0186,0.019,0.0242,0.0269,0.032,0.0348,0.0358,0.0318,0.0187,0.0023,-0.0203,-0.0296,-0.047,-0.0532,-0.0449,-0.0453,-0.0477,-0.0467,-0.0587,-0.0588,-0.0588,-0.0589,-0.0589,0,0.0119,0.0126,0.0145,0.0154,0.016,0.0188,0.022,0.0283,0.0313,0.0374,0.0375,0.0298,0.0259,-0.0027,-0.0246,-0.0452,-0.0504,-0.0553,-0.0556,-0.0498,-0.0498,-0.0486,-0.0475,-0.0538,-0.0538,-0.0538,-0.0538,0,0.0026,0.0066,0.006,0.0101,0.0132,0.0166,0.0223,0.0264,0.035,0.0414,0.0461,0.0455,0.0221,0.0036,-0.0241,-0.0397,-0.051,-0.0558,-0.0564,-0.0522,-0.0457,-0.0454,-0.0445,-0.0538,-0.0538,-0.0538,-0.0538,-0.0538,-0.0063,-0.0067,-0.0021,0.002,0.007,0.0153,0.0228,0.0311,0.0417,0.0583,0.053,0.0604,0.0355,0.0059,-0.0229,-0.0512,-0.0513,-0.058,-0.0579,-0.0578,-0.0567,-0.0508,-0.0592,-0.0592,-0.0592,-0.0593,-0.0593,0,-0.0177,-0.0118,-0.0102,-0.0019,0.0055,0.0114,0.0237,0.0363,0.0539,0.0682,0.0792,0.0637,0.0438,0.0149,-0.0254,-0.0503,-0.053,-0.0585,-0.0553,-0.0552,-0.0552,-0.0538,-0.0557,-0.0557,-0.0557,-0.0558,0,0,-0.0217,-0.0192,-0.0144,-0.004,0.0045,0.0202,0.0308,0.0516,0.0679,0.0869,0.0971,0.1001,0.0609,0.0348,-0.0047,-0.0284,-0.035,-0.0339,-0.0347,-0.0265,-0.0259,-0.0539,-0.0516,0,0,0,0,0]}],[{"header":{"parameterUnit":"m.s-1","parameterCategory":2,"la1":30.2991,"la2":30.254,"lo1":-89.0895,"lo2":-89.0444,"dy":0.0017,"dx":0.0017,"nx":28,"ny":28,"refTime":"2025-06-10T21:00:00:Z","depth":"4","parameterNumber":2,"parameterNumberName":"U-component_of_CURRENTS"},"data":[0,0,0,0,0,0,0,0,0,0,0,0,0,0,0,0,0,0,0,0,0,0,0,0,0,0,0,0,0,0,0,0,0,0,0,0,0,0,0,0,0,0,0,0,0,0,0,0,0,0,0,0,0,0,0,0,0,0,0.0854,0.0854,0,0.0929,0.093,0.0931,0.0989,0.0989,0.0989,0.0989,0.1161,0.1165,0.117,0,0,0,0,0,0,0,0,0,0,0,0,0,0.0709,0.0712,0.0854,0.0854,0.0855,0.0929,0.093,0.0932,0.0989,0.0989,0.0989,0.0989,0.1159,0.1165,0.117,0,0,0,0,0,0,0,0,0,0,0,0,0,0.0782,0.0713,0.0854,0.0888,0.0891,0.0928,0.093,0.0932,0.0989,0.0989,0.0989,0.0989,0.1157,0.1164,0.1171,0.1212,0,0,0.1192,0.1195,0,0,0,0,0,0,0,0,0.0778,0.0788,0.0882,0.0886,0.0889,0.0945,0.0942,0.1029,0.0989,0.0958,0.0989,0.0989,0.1094,0.1106,0.1126,0.122,0.1227,0.1192,0.1196,0.1199,0.1201,0,0,0,0,0,0,0,0.0773,0.0785,0.0889,0.0883,0.0887,0.0881,0.0893,0.0958,0.1031,0.096,0.0963,0.0963,0.1097,0.112,0.1131,0.123,0.1192,0.1198,0.1202,0.1205,0.1404,0.1405,0,0,0,0,0,0,0.0756,0.078,0.0887,0.0891,0.0826,0.0884,0.0897,0.0931,0.1028,0.104,0.0963,0.0965,0.1108,0.1123,0.1137,0.124,0.1199,0.1206,0.121,0.1403,0.1404,0.1405,0,0,0,0,0,0,0.0753,0.0766,0.0883,0.083,0.0844,0.0886,0.0924,0.0933,0.0979,0.1028,0.1043,0.1002,0.1109,0.1128,0.1229,0.1245,0.1209,0.1215,0.1401,0.1403,0.1405,0.1414,0,0,0,0,0,0,0.0749,0.0765,0.079,0.0831,0.0846,0.0931,0.0924,0.0934,0.0974,0.0979,0.1066,0.108,0.111,0.1219,0.1236,0.1254,0.122,0.14,0.1402,0.1404,0.1412,0.1416,0.1419,0,0,0,0,0,0.0744,0.076,0.0792,0.0804,0.0879,0.0932,0.0942,0.0973,0.0976,0.1013,0.1072,0.1079,0.1243,0.1227,0.1246,0.1266,0.1399,0.1401,0.1404,0.1411,0.1415,0.1419,0,0,0,0,0,0,0.0702,0.0769,0.0803,0.084,0.0899,0.094,0.0975,0.0988,0.1061,0.1083,0.1117,0.1138,0.1224,0.1251,0.1231,0.1327,0.1313,0.132,0.1311,0.1316,0.132,0.1315,0.1226,0,0,0,0,0,0.0707,0.0749,0.0813,0.0849,0.0892,0.0943,0.0968,0.0999,0.1057,0.109,0.114,0.1196,0.1246,0.1288,0.1343,0.1415,0.1426,0.1433,0.1436,0.1439,0.1448,0.1495,0.1503,0.1414,0.1414,0.1414,0,0,0.0697,0.074,0.0763,0.0844,0.0905,0.0962,0.0963,0.1029,0.1068,0.11,0.1187,0.1224,0.1269,0.1342,0.138,0.1371,0.1464,0.1442,0.1444,0.1452,0.1498,0.1507,0.1515,0.1416,0.1416,0.1415,0,0,0.0701,0.0759,0.0808,0.0867,0.0958,0.099,0.1014,0.1089,0.1129,0.1219,0.1229,0.127,0.1379,0.1384,0.1404,0.1461,0.1482,0.1487,0.1506,0.1552,0.1559,0.1566,0.1562,0.1569,0.1487,0.1487,0.1487,0,0.0684,0.076,0.0827,0.0897,0.0934,0.1006,0.1062,0.1117,0.1204,0.123,0.1259,0.136,0.1386,0.1429,0.1444,0.1465,0.1499,0.1484,0.1556,0.1563,0.157,0.1564,0.1571,0.1488,0.1488,0.1488,0.1488,0,0.074,0.0802,0.0843,0.0954,0.1005,0.1069,0.115,0.1204,0.1254,0.1293,0.1375,0.1419,0.1469,0.1472,0.1486,0.1534,0.1542,0.1553,0.1541,0.1579,0.1571,0.1578,0.1489,0.1489,0.1489,0.1489,0,0,0.0677,0.0845,0.0855,0.0906,0.1039,0.107,0.1161,0.1234,0.1275,0.1368,0.1405,0.1474,0.15,0.1523,0.1532,0.1564,0.1611,0.1595,0.1597,0.1583,0.1708,0.162,0.1619,0.1666,0.1668,0.1669,0.1671,0,0.07,0.0809,0.0885,0.0964,0.1033,0.1112,0.1179,0.1253,0.1331,0.139,0.1435,0.1499,0.1524,0.155,0.1592,0.1601,0.1639,0.1608,0.168,0.1681,0.1594,0.1627,0.1676,0.1676,0.1678,0.1679,0.168,0,0.072,0.0791,0.0884,0.0976,0.1013,0.1063,0.1152,0.1221,0.1329,0.1404,0.1484,0.1533,0.1572,0.1601,0.167,0.1669,0.1706,0.1716,0.1716,0.1641,0.1608,0.164,0.1693,0.1692,0.1691,0.169,0.1689,0,0.0625,0.076,0.0819,0.0862,0.1002,0.1036,0.1097,0.1221,0.1282,0.1409,0.1469,0.1554,0.1604,0.1664,0.1704,0.1711,0.1777,0.1771,0.1724,0.1716,0.1789,0.1782,0.1851,0.1851,0.1851,0.1851,0.1851,0,0.0589,0.0626,0.0784,0.0809,0.0873,0.0987,0.1059,0.1146,0.1271,0.1345,0.1471,0.1538,0.1645,0.1694,0.1716,0.1734,0.1795,0.1731,0.1723,0.1787,0.1781,0.1791,0.1784,0.1851,0.1851,0.1851,0.1851,0,0.0478,0.0588,0.0648,0.0786,0.0839,0.0876,0.1024,0.1066,0.1228,0.1322,0.1364,0.1534,0.1624,0.1687,0.1767,0.1743,0.1751,0.1755,0.1792,0.1785,0.1649,0.1643,0.1673,0.167,0.1668,0.1666,0.1664,0,0.044,0.0473,0.0603,0.0647,0.0715,0.0811,0.0875,0.1033,0.1101,0.131,0.1333,0.1479,0.1584,0.1604,0.1695,0.1718,0.1733,0.1705,0.1703,0.1648,0.1638,0.1635,0.1632,0.1661,0.166,0.1659,0.1659,0,0.0357,0.0403,0.0451,0.0551,0.0617,0.0686,0.0799,0.0844,0.1032,0.1162,0.1298,0.1375,0.1487,0.1562,0.1612,0.1628,0.1687,0.168,0.1686,0.1683,0.1633,0.1624,0.1624,0.165,0.1652,0.1652,0.1653,0,0.0292,0.0298,0.0374,0.0453,0.052,0.0568,0.0639,0.0755,0.0849,0.1102,0.1138,0.1317,0.1467,0.1517,0.1543,0.1565,0.1559,0.1506,0.152,0.153,0.149,0.1405,0.135,0,0,0,0,0,0.0245,0.0247,0.0287,0.0368,0.0417,0.0473,0.0595,0.0679,0.0865,0.0923,0.1046,0.1153,0.1273,0.1361,0.1362,0.1471,0.154,0.1463,0.1477,0.1605,0.1614,0.1585,0,0,0,0,0,0,0.0212,0.0237,0.0252,0.0282,0.0323,0.0379,0.0449,0.0573,0.0647,0.0844,0.0918,0.1069,0.1196,0.1258,0.1335,0.136,0.1343,0.1574,0.1571,0.1599,0.1608,0.1616,0.1589,0,0,0,0,0]},{"header":{"parameterUnit":"m.s-1","parameterCategory":2,"la1":30.2991,"la2":30.254,"lo1":-89.0895,"lo2":-89.0444,"dy":0.0017,"dx":0.0017,"nx":28,"ny":28,"refTime":"2025-06-10T21:00:00:Z","depth":"4","parameterNumber":3,"parameterNumberName":"V-component_of_CURRENTS"},"data":[0,0,0,0,0,0,0,0,0,0,0,0,0,0,0,0,0,0,0,0,0,0,0,0,0,0,0,0,0,0,0,0,0,0,0,0,0,0,0,0,0,0,0,0,0,0,0,0,0,0,0,0,0,0,0,0,0,0,0.008,0.0079,0,0.0029,0.0028,0.0028,0.0012,0.0013,0.0013,0.0014,-0.0059,-0.0062,-0.0064,0,0,0,0,0,0,0,0,0,0,0,0,0,0.013,0.013,0.008,0.0079,0.0079,0.0029,0.0028,0.0027,0.0012,0.0013,0.0014,0.0014,-0.0058,-0.0061,-0.0064,0,0,0,0,0,0,0,0,0,0,0,0,0,0.0094,0.0129,0.008,0.0068,0.0066,0.003,0.0028,0.0027,0.0012,0.0013,0.0014,0.0014,-0.0057,-0.0061,-0.0065,-0.0104,0,0,-0.0076,-0.0078,0,0,0,0,0,0,0,0,0.0096,0.0092,0.007,0.0069,0.0067,0.0031,0.002,-0.0017,0.0012,0.0029,0.0014,0.0015,-0.003,-0.0036,-0.0051,-0.0107,-0.011,-0.0076,-0.0078,-0.008,-0.0081,0,0,0,0,0,0,0,0.0099,0.0094,0.0057,0.007,0.0068,0.0054,0.005,0.0012,-0.0007,0.0028,0.0028,0.0027,-0.0031,-0.0048,-0.0053,-0.0111,-0.0076,-0.0079,-0.0082,-0.0083,-0.0231,-0.0233,0,0,0,0,0,0,0.0112,0.0096,0.0058,0.0055,0.0087,0.0053,0.0048,0.0039,-0.0006,-0.0011,0.0026,0.0026,-0.0042,-0.0049,-0.0056,-0.0125,-0.008,-0.0083,-0.0086,-0.023,-0.0232,-0.0234,0,0,0,0,0,0,0.0113,0.0109,0.006,0.0078,0.0071,0.0052,0.0041,0.0038,0.0023,-0.0007,-0.0013,0.0017,-0.0041,-0.005,-0.0096,-0.0127,-0.0085,-0.0088,-0.0228,-0.023,-0.0233,-0.0251,0,0,0,0,0,0,0.0114,0.0109,0.0104,0.0078,0.0071,0.004,0.0041,0.0036,0.0023,0.0023,-0.0017,-0.0023,-0.0041,-0.0091,-0.01,-0.0131,-0.0091,-0.0225,-0.0229,-0.0232,-0.0248,-0.0254,-0.0259,0,0,0,0,0,0.0116,0.011,0.0103,0.0099,0.0065,0.004,0.0034,0.0021,0.0022,0.0012,-0.0019,-0.0022,-0.0118,-0.0095,-0.0105,-0.0139,-0.0224,-0.0228,-0.0232,-0.0246,-0.0253,-0.0259,0,0,0,0,0,0,0.0128,0.0107,0.01,0.0087,0.0066,0.0039,0.0027,0.002,-0.0014,-0.0016,-0.0042,-0.0052,-0.0109,-0.0121,-0.0095,-0.0193,-0.0173,-0.0179,-0.018,-0.0187,-0.0192,-0.0187,-0.0094,0,0,0,0,0,0.0128,0.0119,0.0095,0.0084,0.0071,0.0047,0.0036,0.0027,-0.0002,-0.0015,-0.0042,-0.0082,-0.0136,-0.0155,-0.0199,-0.0246,-0.0253,-0.0276,-0.0282,-0.0286,-0.0291,-0.033,-0.0339,-0.0246,-0.0246,-0.0246,0,0,0.0133,0.0119,0.0116,0.0087,0.0066,0.0041,0.0041,0.0022,-0.0002,-0.002,-0.0064,-0.0103,-0.0154,-0.0214,-0.024,-0.0224,-0.0315,-0.0291,-0.0294,-0.0297,-0.0335,-0.0344,-0.0351,-0.0249,-0.0249,-0.0248,0,0,0.013,0.0119,0.0104,0.0086,0.0058,0.004,0.0036,0.0005,-0.0015,-0.0058,-0.0091,-0.0145,-0.0204,-0.0256,-0.0289,-0.035,-0.0346,-0.0363,-0.0381,-0.0419,-0.0426,-0.0433,-0.0443,-0.045,-0.0359,-0.0359,-0.0359,0,0.0135,0.0108,0.0096,0.0072,0.0055,0.004,0.0013,-0.0012,-0.0052,-0.0075,-0.0071,-0.0188,-0.023,-0.032,-0.0347,-0.0363,-0.0369,-0.0349,-0.0424,-0.0431,-0.0437,-0.0446,-0.0453,-0.0361,-0.0361,-0.036,-0.036,0,0.011,0.0091,0.0079,0.0043,0.0025,0.0001,-0.0031,-0.0051,-0.0071,-0.0098,-0.0177,-0.0239,-0.0301,-0.0336,-0.0364,-0.0444,-0.0428,-0.0428,-0.0401,-0.0447,-0.0453,-0.0461,-0.0363,-0.0362,-0.0362,-0.0361,0,0,0.0099,0.0068,0.0065,0.0059,0.0005,0.0004,-0.0049,-0.0096,-0.0106,-0.0166,-0.0199,-0.0322,-0.0341,-0.0382,-0.0428,-0.0472,-0.0529,-0.0469,-0.047,-0.0466,-0.059,-0.0534,-0.0537,-0.0536,-0.0537,-0.0539,-0.0571,0,0.0072,0.005,0.0027,0.0008,-0.0014,-0.0038,-0.007,-0.0105,-0.014,-0.0167,-0.0253,-0.03,-0.0363,-0.0383,-0.045,-0.0503,-0.0552,-0.0519,-0.0557,-0.0558,-0.0493,-0.0545,-0.0545,-0.0577,-0.0579,-0.058,-0.0581,0,0.0026,0.0028,0.0001,0.0005,-0.0004,-0.0016,-0.0045,-0.0069,-0.0128,-0.0155,-0.0232,-0.0274,-0.0376,-0.0398,-0.0533,-0.0504,-0.056,-0.0599,-0.06,-0.0548,-0.0517,-0.0527,-0.0595,-0.0594,-0.0593,-0.0592,-0.0591,0,0.0026,0.0006,-0.0002,-0.0009,-0.0016,-0.0025,-0.0026,-0.0073,-0.0069,-0.014,-0.0133,-0.0266,-0.0295,-0.041,-0.0507,-0.0518,-0.0617,-0.0635,-0.0643,-0.0638,-0.0667,-0.066,-0.0734,-0.0734,-0.0734,-0.0734,-0.0734,0,0.0001,0.0006,0.0008,0.0018,0.0035,0.001,0.0028,0.0002,-0.0019,-0.0002,-0.0114,-0.0125,-0.0297,-0.0368,-0.0484,-0.0575,-0.0604,-0.0657,-0.0653,-0.0673,-0.0666,-0.0671,-0.0664,-0.0735,-0.0735,-0.0735,-0.0734,0,0.0025,0.0002,0.0018,0.003,0.0034,0.006,0.0103,0.013,0.0088,0.0107,0.0095,-0.0009,-0.0117,-0.0267,-0.0427,-0.051,-0.0619,-0.0644,-0.063,-0.0622,-0.0623,-0.0617,-0.067,-0.0668,-0.0667,-0.0666,-0.0665,0,0.0052,0.0045,0.0067,0.0093,0.0106,0.0146,0.0182,0.0173,0.0204,0.0183,0.0202,0.0109,0.0022,-0.0149,-0.0333,-0.0537,-0.0572,-0.0616,-0.067,-0.0632,-0.0622,-0.0617,-0.0612,-0.0663,-0.0663,-0.0662,-0.0662,0,0.0122,0.0108,0.0146,0.0185,0.0223,0.0282,0.0327,0.0357,0.0351,0.0331,0.0305,0.0192,0.0083,-0.0114,-0.0257,-0.0415,-0.0586,-0.0604,-0.0609,-0.0661,-0.0624,-0.0615,-0.0611,-0.0658,-0.0658,-0.0659,-0.0659,0,0.0194,0.0226,0.0248,0.0284,0.0339,0.0385,0.0406,0.0441,0.046,0.0419,0.0414,0.0263,0.0162,-0.0047,-0.0185,-0.0327,-0.0387,-0.0436,-0.0451,-0.0458,-0.0398,-0.0321,-0.0265,0,0,0,0,0,0.0261,0.0284,0.0346,0.0375,0.0437,0.0445,0.0493,0.0503,0.0492,0.0495,0.0452,0.0343,0.0129,0.0026,-0.0107,-0.0187,-0.0421,-0.0346,-0.0487,-0.0633,-0.0638,-0.0601,0,0,0,0,0,0,0.0299,0.0353,0.0362,0.0443,0.0471,0.0532,0.055,0.0543,0.0534,0.0501,0.0387,0.0322,0.0105,0.0204,-0.0108,-0.0154,-0.0256,-0.0457,-0.0459,-0.063,-0.0635,-0.0639,-0.0602,0,0,0,0,0]}]]